Weather History for Kendall, FL

Change the Weather History Date:

Thursday, February 14, 2013

  Actual Average Record
Temperature  
Mean Temperature 74 °F -  
Max Temperature 87 °F 78 °F 87 °F (2013)
Min Temperature 62 °F 57 °F 37 °F (2006)
Cooling Degree Days 10    
Growing Degree Days 24 (Base 50)    
Moisture  
Dew Point 67 °F    
Average Humidity 90    
Maximum Humidity 100    
Minimum Humidity 53    
Precipitation  
Precipitation 0.39 in - - ()
Sea Level Pressure  
Sea Level Pressure 29.97 in    
Wind  
Wind Speed 5 mph (NNW)    
Max Wind Speed 21 mph    
Max Gust Speed 30 mph    
Visibility 7 miles    
Events Rain    
Averages and records for this station are not official NWS values.
T = Trace of Precipitation, MM = Missing Value Source: NWS Daily Summary

Daily Weather History Graph

Daily Weather History Graph

Search for Another Location

Airport:

Trip Planner

Search our weather history database for the weather conditions in past years. The results will help you decide how hot, cold, wet, or windy it might be!

Date:

Astronomy

Feb. 14, 2013 Rise Set
Actual Time 6:57 AM EST 6:14 PM EST
Civil Twilight 6:33 AM EST 6:38 PM EST
Nautical Twilight 6:06 AM EST 7:05 PM EST
Astronomical Twilight 5:39 AM EST 7:32 PM EST
Moon 9:31 AM EST (2/14) 10:39 PM EST (2/14)
Length of Visible Light 12h 04m
Length of Day
11h 17m
Waxing Crescent, 21% of the Moon is Illuminated
Feb 14
Waxing Crescent
Feb 17
First Quarter
Feb 25
Full
Mar 4
Last Quarter
Mar 11
New

Hourly Weather History & Observations

Time (EST) Temp. Heat Index Dew Point Humidity Pressure Visibility Wind Dir Wind Speed Gust Speed Precip Events Conditions
12:53 AM 72.0 °F - 70.0 °F 93% 29.99 in 10.0 mi South 5.8 mph - N/A   Partly Cloudy
1:53 AM 72.0 °F - 70.0 °F 93% 29.97 in 10.0 mi Calm Calm - N/A   Clear
2:53 AM 71.1 °F - 69.1 °F 93% 29.95 in 10.0 mi SSE 4.6 mph - N/A   Partly Cloudy
3:53 AM 71.1 °F - 70.0 °F 96% 29.94 in 10.0 mi Calm Calm - N/A   Clear
4:53 AM 71.1 °F - 69.1 °F 93% 29.93 in 10.0 mi Calm Calm - N/A   Clear
5:12 AM 69.8 °F - 69.8 °F 100% 29.93 in 1.5 mi Calm Calm - N/A   Partly Cloudy
5:14 AM 68.0 °F - 68.0 °F 100% 29.93 in 0.8 mi Calm Calm - N/A   Mist
5:28 AM 69.8 °F - 69.8 °F 100% 29.93 in 1.2 mi Calm Calm - N/A   Scattered Clouds
5:32 AM 68.0 °F - 68.0 °F 100% 29.94 in 3.0 mi Calm Calm - N/A   Scattered Clouds
5:36 AM 68.0 °F - 68.0 °F 100% 29.94 in 1.8 mi SE 3.5 mph - N/A   Scattered Clouds
5:45 AM 69.8 °F - 69.8 °F 100% 29.94 in 4.0 mi Calm Calm - N/A   Scattered Clouds
5:53 AM 69.1 °F - 69.1 °F 100% 29.94 in 10.0 mi Calm Calm - N/A   Partly Cloudy
5:59 AM 68.0 °F - 68.0 °F 100% 29.95 in 1.5 mi Calm Calm - N/A   Scattered Clouds
6:02 AM 68.0 °F - 68.0 °F 100% 29.95 in 0.8 mi Calm Calm - N/A   Mist
6:21 AM 68.0 °F - 66.2 °F 94% 29.95 in 1.5 mi Calm Calm - N/A   Scattered Clouds
6:23 AM 69.8 °F - 68.0 °F 94% 29.95 in 3.0 mi Calm Calm - N/A   Scattered Clouds
6:40 AM 66.2 °F - 66.2 °F 100% 29.96 in 1.8 mi Calm Calm - N/A   Partly Cloudy
6:44 AM 64.4 °F - 64.4 °F 100% 29.96 in 7.0 mi Calm Calm - N/A   Scattered Clouds
6:49 AM 66.2 °F - 64.4 °F 94% 29.96 in 7.0 mi Calm Calm - N/A   Mostly Cloudy
6:53 AM 64.9 °F - 64.9 °F 100% 29.96 in 7.0 mi Calm Calm - N/A   Mostly Cloudy
6:57 AM 66.2 °F - 64.4 °F 94% 29.96 in 5.0 mi Calm Calm - N/A   Scattered Clouds
7:53 AM 71.1 °F - 71.1 °F 100% 29.98 in 5.0 mi Calm Calm - N/A   Scattered Clouds
8:00 AM 71.6 °F - 71.6 °F 100% 29.98 in 6.0 mi Calm Calm - N/A   Mostly Cloudy
8:53 AM 75.9 °F - 73.9 °F 94% 29.99 in 6.0 mi Calm Calm - N/A   Mostly Cloudy
9:05 AM 77.0 °F - 73.4 °F 89% 29.99 in 10.0 mi Variable 3.5 mph - N/A   Mostly Cloudy
9:53 AM 75.0 °F - 71.1 °F 87% 30.01 in 10.0 mi NNW 9.2 mph - 0.00 in   Mostly Cloudy
10:00 AM 77.0 °F - 71.6 °F 83% 30.00 in 10.0 mi NNW 4.6 mph - N/A   Mostly Cloudy
10:53 AM 81.0 °F 84.9 °F 71.1 °F 72% 30.00 in 10.0 mi NW 4.6 mph - N/A   Clear
11:53 AM 84.0 °F 87.0 °F 68.0 °F 58% 29.98 in 10.0 mi WSW 11.5 mph - N/A   Partly Cloudy
12:53 PM 87.1 °F 90.6 °F 68.0 °F 53% 29.94 in 10.0 mi SSW 12.7 mph 21.9 mph N/A   Partly Cloudy
1:53 PM 84.9 °F 88.8 °F 69.1 °F 59% 29.91 in 10.0 mi South 12.7 mph 24.2 mph N/A   Scattered Clouds
2:53 PM 84.9 °F 88.2 °F 68.0 °F 57% 29.90 in 10.0 mi South 15.0 mph 24.2 mph N/A   Scattered Clouds
3:53 PM 82.0 °F 84.9 °F 68.0 °F 62% 29.90 in 10.0 mi SSW 12.7 mph 23.0 mph N/A   Scattered Clouds
4:53 PM 81.0 °F 83.8 °F 68.0 °F 65% 29.91 in 10.0 mi SW 15.0 mph 21.9 mph N/A   Mostly Cloudy
5:53 PM 80.1 °F 83.2 °F 70.0 °F 71% 29.93 in 10.0 mi SW 12.7 mph 19.6 mph 0.00 in   Mostly Cloudy
6:53 PM 78.1 °F - 71.1 °F 79% 29.93 in 10.0 mi SSW 4.6 mph - N/A   Mostly Cloudy
7:53 PM 70.0 °F - 66.0 °F 87% 29.95 in 10.0 mi North 20.7 mph - N/A   Overcast
8:00 PM 69.8 °F - 64.4 °F 83% 29.96 in 10.0 mi NNW 18.4 mph 29.9 mph N/A   Overcast
8:53 PM 64.0 °F - 62.1 °F 93% 30.01 in 6.0 mi NNW 18.4 mph 26.5 mph 0.10 in Rain Rain
9:08 PM 64.4 °F - 62.6 °F 94% 30.01 in 10.0 mi North 19.6 mph 29.9 mph 0.02 in Rain Rain
9:26 PM 62.6 °F - 62.6 °F 100% 30.01 in 10.0 mi North 15.0 mph 25.3 mph 0.02 in Rain Light Rain
9:53 PM 63.0 °F - 61.0 °F 93% 30.02 in 10.0 mi North 17.3 mph 23.0 mph 0.02 in   Overcast
10:08 PM 62.6 °F - 60.8 °F 94% 30.02 in 10.0 mi North 12.7 mph 24.2 mph N/A   Overcast
10:36 PM 62.6 °F - 60.8 °F 94% 30.04 in 4.0 mi North 10.4 mph - 0.13 in Rain Rain
10:43 PM 62.6 °F - 60.8 °F 94% 30.03 in 2.5 mi North 12.7 mph - 0.22 in Rain Heavy Rain
10:46 PM 62.6 °F - 60.8 °F 94% 30.03 in 3.0 mi North 10.4 mph - 0.23 in Rain Heavy Rain
10:53 PM 62.1 °F - 60.1 °F 93% 30.04 in 8.0 mi North 10.4 mph - 0.23 in Rain Light Rain
11:07 PM 62.6 °F - 60.8 °F 94% 30.03 in 10.0 mi North 10.4 mph - 0.01 in Rain Light Rain
11:18 PM 62.6 °F - 60.8 °F 94% 30.03 in 10.0 mi North 6.9 mph - 0.01 in Rain Light Rain
11:51 PM 62.6 °F - 60.8 °F 94% 30.01 in 10.0 mi North 11.5 mph - 0.04 in Rain Light Rain
11:53 PM 63.0 °F - 61.0 °F 93% 30.01 in 10.0 mi NNE 12.7 mph - 0.04 in Rain Light Rain